Weather in Savino

Russia / Mari El Republic     56°39′21″N   48°00′40″E
temp.,
°C
wind,
m/s
gust,
m/s
humid.,
%
clouds,
%
prec.,
mm/h
press.,
hPa
HPBL,
m
3 march, wed
wed300:00−4wsw389759 0.1 999256
03:00−3w4109676 0.6 999467
06:00−5wnw61193100 0.6 999545
09:00−4nw61094100 0.9 1001751
12:00−4nw6987100 0.3 1002754
15:00−5wnw61088100 0.4 1004771
18:00−6wnw51089100 0.1 1004728
21:00−6w4989100 0.1 1004639
4 march, thu
thu400:00−6sw51194100 0.3 1001538
03:00−4wsw41195100 0.8 999589
06:00−4wsw41093100 0.2 997619
09:00−3sw61195100 0.7 994781
12:000wsw71189100 0.6 992965
15:00−1w7117683 1.6 9921088
18:00−5w5138760 0.1 994605
21:00−6wnw499562 0.1 997259
5 march, fri
fri500:00−9wnw3696100 0.1 998102
03:00−13nw239665 0.1 100029
06:00−15nnw23960 0.0 100120
09:00−13n259124 0.0 1002197
12:00−9nnw358552 0.0 1004502
15:00−9nw468575 0.0 1006689
18:00−13wnw3594100 0.0 1008114
21:00−16wnw239564 0.0 101025
6 march, sat
sat600:00−16w23970 0.0 101123
03:00−15sw349742 0.1 101276
06:00−17sw349868 0.0 101193
09:00−13sw369481 0.1 1011269
12:00−9w3590100 0.2 1011581
15:00−10nw4686100 0.3 1011636
18:00−15nw239026 0.0 101123
21:00−18w239413 0.0 101120
7 march, sun
sun700:00−16wsw369761 0.0 1011128
03:00−17sw369879 0.1 1010130
06:00−18sw369898 0.1 1009127
09:00−14ssw499398 0.1 1008289
12:00−10s61190100 0.0 1006558
15:00−8s71289100 0.1 1002811
18:00−8s71493100 0.7 9991010
21:00−6s81593100 2.1 9941082